Tracking 29781 objects as of 15-Oct-2024
HD Live streaming from Space Station
objects crossing your sky now

DELTA 1 DEB

Track DELTA 1 DEB now!
10-day predictions


NORAD ID: 21371
Int'l Code: 1975-052CR
Perigee: 1,098.0 km
Apogee: 1,330.1 km
Inclination: 99.8 °
Period: 109.6 minutes
Semi major axis: 7585 km
RCS: 0.0521 m2 (small)
Launch date: June 12, 1975
Source: United States (US)
Launch site: AIR FORCE WESTERN TEST RANGE (AFWTR)

Note: This is SATELLITE DEBRIS
Your satellite tracking list
Your tracking list is empty




NASA's NSSDC Master Catalog

Two Line Element Set (TLE):
1 21371U 75052CR  24288.52182934  .00000083  00000-0  31156-3 0  9991
2 21371  99.8045  33.1594 0153006  91.1628 331.3421 13.14211415601768
Source of the keplerian elements: AFSPC